Weather in Santa Barbara

United States     34°25′49″N   119°42′07″W
temp.,
°C
wind,
m/s
gust,
m/s
humid.,
%
clouds,
%
prec.,
mm/h
press.,
hPa
HPBL,
m
16 may, sun
sun1623:00+9nne22915 0.0 101325
02:00+10ne118690 0.0 1013125
05:00+10e128891 0.0 1014246
08:00+12se117496 0.0 1015537
11:00+17ssw425421 0.0 10141030
14:00+18ssw435411 0.0 1014928
17:00+16ssw32612 0.0 1014639
20:00+10s11931 0.0 101432
17 may, mon
mon1723:00+10nne11911 0.0 101624
02:00+9n11910 0.0 101623
05:00+9nne11921 0.0 101618
08:00+14ssw11722 0.0 1016321
11:00+19sw43506 0.0 1016763
14:00+20ssw44486 0.1 1015578
17:00+23sw24370 0.1 1013647
20:00+15nw22590 0.0 101319
18 may, tue
tue1823:00+12n22639 0.0 101517
02:00+12nne11545 0.0 101426
05:00+12n21520 0.0 101417
08:00+19wsw11370 0.0 1014251
11:00+24sw44310 0.0 1013553
14:00+28sw35240 0.0 1011773
17:00+31wnw58130 0.0 10091970
20:00+19nnw343390 0.0 101072
19 may, wed
wed1923:00+17nne433225 0.0 101243
02:00+16nne323297 0.0 101132
05:00+13n32390 0.0 101126
08:00+20w11270 0.0 1011308
11:00+24sw44250 0.0 1010858
14:00+27sw45190 0.0 10091147
17:00+24wnw55250 0.0 1008651
20:00+15nnw55440 0.0 1009110
20 may, thu
thu2023:00+13n33510 0.0 101155
02:00+11n33564 0.0 101157
05:00+10n33570 0.0 101145
08:00+16n12200 0.0 1011471
11:00+21sw44140 0.0 10101538
14:00+24sw45120 0.0 10082021
17:00+20nw810220 0.0 10091251
20:00+10nw68560 0.0 1011191